Regional Weather Roundup
Issued by NWS

Home | Current Version | Previous Version | Graphics & Text | Print | Product List | Glossary On
Versions: 1 2 3 4 5 6 7 8 9 10 11 12 13 14 15 16 17 18 19 20 21 22 23 24 25 26 27 28 29 30 31 32 33 34 35 36 37 38 39 40 41 42 43 44 45 46 47 48 49 50
000
ASUS43 KTOP 261659
RWRKS

WEATHER ROUNDUP FOR KANSAS
NATIONAL WEATHER SERVICE GOODLAND KS
1200 PM CDT WED APR 26 2017

NOTE:  "FAIR" INDICATES FEW OR NO CLOUDS BELOW 12,000 FEET WITH NO
SIGNIFICANT WEATHER AND/OR OBSTRUCTIONS TO VISIBILITY.

KSZ001>006-013>018-027>032-041>047-261800-
NORTHWEST KANSAS

CITY           SKY/WX    TMP DP  RH WIND       PRES   REMARKS
GOODLAND       SUNNY     44  30  57 N17G26    29.78F
HAYS           CLOUDY    47  31  53 N17G25    29.75S
HILL CITY      PTSUNNY   49  30  48 N18G30    29.77S
RUSSELL        PTSUNNY   47  31  53 N21G30    29.73R
$$

KSZ061>065-074>080-084>089-261800-
SOUTHWEST KANSAS

CITY           SKY/WX    TMP DP  RH WIND       PRES   REMARKS
DODGE CITY     SUNNY     47  29  49 N22G35    29.75S
GARDEN CITY    MOSUNNY   48  29  47 N24G32    29.77F
GREAT BEND     PTSUNNY   46  33  60 N17G26    29.74S
LIBERAL        MOSUNNY   49  32  52 NW23G31   29.78S
$$

KSZ066>073-081>083-090>101-261800-
SOUTHEAST KANSAS

CITY           SKY/WX    TMP DP  RH WIND       PRES   REMARKS
CHANUTE        LGT RAIN  45  40  82 N16G22    29.63F
COFFEYVILLE    LGT RAIN  46  41  82 N17G24    29.65R
HUTCHINSON     CLOUDY    46  34  62 N15       29.73R
MEDICINE LODGE   N/A     47  33  58 N16G25    29.74R
NEWTON         CLOUDY    44  35  70 N17G24    29.71R
PARSONS        CLOUDY    47  42  83 NW12      29.67R
WICHITA INTL   CLOUDY    46  36  68 N18G26    29.72R
WICHITA JABRA  CLOUDY    46  37  71 N20       29.70R
WINFIELD       CLOUDY    45  38  76 N15       29.71R
$$

KSZ007>012-019>026-033>040-048>060-102>105-261800-
NORTHEAST KANSAS

CITY           SKY/WX    TMP DP  RH WIND       PRES   REMARKS
CONCORDIA      CLOUDY    47  35  63 NW16G24   29.71S
EMPORIA        CLOUDY    45  37  73 NW14G21   29.66F
LAWRENCE       CLOUDY    46  39  76 NW12      29.66S
MANHATTAN      CLOUDY    47  35  63 N12G21    29.69F
OLATHE IND     CLOUDY    44  38  79 NW16G23   29.66R
OLATHE EXE     CLOUDY    43  39  86 N15       29.64S
SALINA         CLOUDY    48  34  58 N21       29.72R
TOPEKA BILLARD CLOUDY    50  40  68 NW12G22   29.66F
TOPEKA FORBES  CLOUDY    50  38  63 NW14      29.65S
$$




USA.gov is the U.S. government's official web portal to all federal, state and local government web resources and services.